DW4535 Weather Reports


time (UTC)temp
F
wind
direction
speed
knots
gust
knots
rain 1hr
in
rain 24hr
in
rain mn
in
humidity
%
barometer
mb
20260505063012 0 321 2.6 5.2 0.00 0.00 0.00 1013.3
20260505061517 0 338 1.7 6.1 0.00 0.00 0.00 1013.3
20260505060011 0 328 2.6 5.2 0.00 0.00 0.00 1013.3
20260505054510 0 330 2.6 5.2 0.00 0.00 0.00 1013.3
20260505053009 0 330 2.6 7.0 0.00 0.00 0.00 1013.5
20260505051516 0 360 2.6 5.2 0.00 0.00 0.00 1013.5
20260505041600 0 327 2.6 5.2 0.00 0.00 0.00 1013.2
20260505040055 0 311 1.7 4.3 0.00 0.00 0.00 1013.2
20260505034611 0 332 2.6 6.1 0.00 0.00 0.00 1013.1
20260505033052 0 284 1.7 6.1 0.00 0.00 0.00 1013.0
20260505031542 0 322 2.6 5.2 0.00 0.00 0.00 1012.9
20260505030037 0 304 1.7 4.3 0.00 0.00 0.00 1012.7
20260505024531 0 335 2.6 4.3 0.00 0.00 0.00 1012.7
20260505023027 0 328 2.6 5.2 0.00 0.00 0.00 1012.7
20260505021521 0 323 2.6 6.1 0.00 0.00 0.00 1012.7
20260505020018 0 323 3.5 7.0 0.00 0.00 0.00 1012.8
20260505014513 0 327 3.5 7.8 0.00 0.00 0.00 1013.0
20260505013009 0 319 2.6 5.2 0.00 0.00 0.00 1013.1
20260505011505 0 333 2.6 8.7 0.00 0.00 0.00 1013.1
20260505004607 0 323 3.5 6.1 0.00 0.00 0.00 1013.2
20260505003057 0 325 3.5 7.0 0.00 0.00 0.00 1013.2
20260505001605 0 322 3.5 7.8 0.00 0.00 0.00 1013.1
20260505000106 0 329 4.3 7.8 0.00 0.00 0.00 1013.2
20260504234546 0 324 3.5 7.0 0.00 0.00 0.00 1013.2
20260504233057 0 325 4.3 8.7 0.00 0.00 0.00 1013.2
20260504231537 0 319 4.3 7.8 0.00 0.00 0.00 1013.2
20260504230035 0 335 4.3 7.0 0.00 0.00 0.00 1013.2
20260504224538 0 245 3.5 7.0 0.00 0.00 0.00 1013.4
20260504223034 0 324 3.5 7.0 0.00 0.00 0.00 1013.5
20260504221533 0 323 4.3 7.8 0.00 0.00 0.00 1013.5
20260504220034 0 338 5.2 7.8 0.00 0.00 0.00 1013.5
20260504214531 0 328 4.3 8.7 0.00 0.00 0.00 1013.5
20260504213034 0 330 3.5 7.8 0.00 0.00 0.00 1013.5
20260504211530 0 323 4.3 7.8 0.00 0.00 0.00 1013.5
20260504210031 0 323 4.3 8.7 0.00 0.00 0.00 1013.6
20260504204529 0 328 4.3 8.7 0.00 0.00 0.00 1013.6
20260504203029 0 351 4.3 7.8 0.00 0.00 0.00 1013.6
20260504201528 0 334 5.2 7.8 0.00 0.00 0.00 1013.6
20260504200029 0 318 4.3 7.8 0.00 0.00 0.00 1013.6
20260504194527 0 330 3.5 7.0 0.00 0.00 0.00 1013.7
20260504193016 0 321 3.5 7.8 0.00 0.00 0.00 1013.7
20260504191511 0 335 2.6 7.8 0.00 0.00 0.00 1013.9
20260504190006 0 326 3.5 7.0 0.00 0.00 0.00 1013.7
20260504184502 0 323 3.5 7.0 0.00 0.00 0.00 1013.8
20260504183058 0 328 3.5 7.0 0.00 0.00 0.00 1013.6
20260504181558 0 333 3.5 7.0 0.00 0.00 0.00 1013.5
20260504180048 0 300 3.5 7.0 0.00 0.00 0.00 1013.5
20260504174544 0 311 4.3 7.8 0.00 0.00 0.00 1013.4
20260504173039 0 329 4.3 7.0 0.00 0.00 0.00 1013.3
20260504171545 0 316 3.5 7.8 0.00 0.00 0.00 1013.4
20260504081555 0 316 2.6 6.1 0.00 0.00 0.00 1010.9